Location: La Estación
(39.9833°N, 3.9500°W)
Time: 15:47:19
(UTC+00:00)

Cosmos 1844 Rocket - Pass Details

Date: 14 June 2025
Orbit: 823 x 844 km, 71.0° (Epoch: 19 July)

Event Time Altitude Azimuth Distance (km) Brightness Sun altitude
Exits shadow 22:54:43 39° 101° (E) 1,244 3.3 -23.9°
Drops below altitude 10° 22:59:45 10° 38° (NE) 2,468 5.5 -24.2°
Sets 23:02:20 0° 31° (NNE) 3,409 6.4 -24.4°
